[[{"header":{"parameterUnit":"m.s-1","parameterCategory":1,"la1":30.2991,"la2":30.254,"lo1":-89.0895,"lo2":-89.0444,"dy":0.0017,"dx":0.0017,"nx":28,"ny":28,"refTime":"2024-07-08T03:00:00:Z","depth":0,"parameterNumber":2,"parameterNumberName":"U-component_of_WINDS"},"data":[0,0,0,0,0,0,0,0,0,0,0,0,0,0,0,0,0,0,0,0,0,0,0,0,0,0,0,0,0,0,0,0,0,0,0,0,0,0,0,0,0,0,0,0,0,0,0,0,0,0,0,0,0,0,0,0,0,0,5.5139,5.5141,0,5.5266,5.5268,5.5269,5.5206,5.5202,5.5199,5.5196,5.5326,5.5333,5.5339,0,0,0,0,0,0,0,0,0,0,0,0,0,5.484,5.4846,5.5139,5.5141,5.5142,5.5266,5.5268,5.5269,5.5206,5.5202,5.5198,5.5194,5.5324,5.5332,5.534,0,0,0,0,0,0,0,0,0,0,0,0,0,5.4969,5.4848,5.5139,5.5126,5.5126,5.5266,5.5268,5.527,5.5207,5.5202,5.5197,5.5193,5.5321,5.5331,5.5341,5.5501,0,0,5.5371,5.5375,0,0,0,0,0,0,0,0,5.4962,5.498,5.5126,5.5127,5.5127,5.5215,5.521,5.5347,5.5208,5.5176,5.5196,5.519,5.5293,5.5305,5.534,5.5507,5.5512,5.5372,5.5378,5.5382,5.5385,0,0,0,0,0,0,0,5.4953,5.4974,5.5189,5.5128,5.5129,5.5113,5.5126,5.5236,5.5261,5.5179,5.5174,5.519,5.5293,5.533,5.5342,5.5514,5.5371,5.538,5.5386,5.539,5.5815,5.582,0,0,0,0,0,0,5.4945,5.4967,5.5185,5.5193,5.5031,5.5122,5.5137,5.5192,5.526,5.5265,5.5194,5.5187,5.5316,5.5331,5.5347,5.5536,5.5382,5.5391,5.5397,5.581,5.5816,5.5822,0,0,0,0,0,0,5.4939,5.4965,5.518,5.5079,5.5105,5.5133,5.5195,5.5197,5.5235,5.5272,5.5276,5.5229,5.5313,5.5333,5.5462,5.5539,5.5395,5.5404,5.5803,5.5812,5.5819,5.5917,0,0,0,0,0,0,5.493,5.4963,5.5025,5.5081,5.5111,5.5294,5.52,5.5203,5.5252,5.5243,5.5305,5.531,5.531,5.5448,5.5472,5.555,5.5412,5.5796,5.5807,5.5817,5.5907,5.5927,5.5945,0,0,0,0,0,5.492,5.5048,5.5028,5.5055,5.5189,5.5299,5.5316,5.5314,5.5258,5.532,5.5343,5.5308,5.5527,5.5461,5.5488,5.5571,5.5792,5.5804,5.5816,5.5898,5.5923,5.5945,0,0,0,0,0,0,5.5001,5.5055,5.5034,5.5184,5.5237,5.5288,5.5366,5.5341,5.5411,5.54,5.5394,5.5409,5.5542,5.5569,5.5495,5.5727,5.5651,5.5669,5.5704,5.5729,5.5747,5.5737,5.542,0,0,0,0,0,5.5036,5.5122,5.5164,5.5293,5.5321,5.5339,5.5387,5.538,5.5435,5.5457,5.549,5.5544,5.5625,5.5679,5.5755,5.5911,5.5922,5.5981,5.6,5.6015,5.603,5.6112,5.6137,5.5862,5.5862,5.5862,0,0,5.511,5.515,5.5205,5.531,5.535,5.5438,5.5358,5.5455,5.5519,5.5472,5.5595,5.5621,5.5681,5.5823,5.5888,5.585,5.6109,5.6031,5.6043,5.605,5.6127,5.6153,5.6176,5.587,5.5869,5.5867,0,0,5.5289,5.5329,5.5439,5.5481,5.5542,5.5553,5.558,5.5634,5.5649,5.5772,5.5738,5.5814,5.5954,5.5998,5.6038,5.6231,5.62,5.6256,5.6355,5.6434,5.6456,5.6475,5.6541,5.6565,5.6271,5.6271,5.6272,0,5.5373,5.5504,5.5499,5.5598,5.5644,5.5604,5.5714,5.5755,5.5839,5.5871,5.5828,5.6001,5.6039,5.6189,5.6236,5.6271,5.6299,5.6248,5.6453,5.6472,5.649,5.6553,5.6578,5.6278,5.6277,5.6276,5.6276,0,5.5603,5.5694,5.5775,5.5856,5.5911,5.6016,5.6025,5.6082,5.607,5.6085,5.6209,5.6253,5.6337,5.6372,5.6362,5.6521,5.6495,5.6453,5.6376,5.6523,5.6582,5.6606,5.6286,5.6284,5.6282,5.6281,0,0,5.5838,5.5912,5.5942,5.5977,5.6041,5.6111,5.6212,5.6293,5.634,5.6399,5.6482,5.6601,5.6561,5.6607,5.6601,5.6671,5.6818,5.662,5.6621,5.6653,5.6992,5.7022,5.705,5.6798,5.6803,5.6807,5.6986,0,5.6019,5.6196,5.6193,5.6357,5.6439,5.6402,5.649,5.6538,5.6554,5.6626,5.6644,5.6727,5.667,5.6696,5.6764,5.6786,5.6885,5.6773,5.6874,5.6878,5.6859,5.7081,5.7114,5.7281,5.7009,5.7013,5.7016,0,5.6255,5.632,5.6492,5.6541,5.6575,5.6655,5.6726,5.6796,5.6849,5.6856,5.6906,5.6889,5.699,5.691,5.7048,5.6972,5.7013,5.703,5.7036,5.7044,5.6955,5.7093,5.7335,5.7359,5.7053,5.705,5.7047,0,5.6406,5.6537,5.6655,5.6686,5.6748,5.6803,5.6831,5.6879,5.6927,5.699,5.7021,5.7096,5.7136,5.7194,5.7196,5.7138,5.7335,5.7256,5.7342,5.7342,5.7384,5.7381,5.7633,5.7414,5.7414,5.7413,5.7413,0,5.6608,5.6714,5.6723,5.6796,5.6913,5.6908,5.7023,5.7046,5.7089,5.7164,5.7137,5.7208,5.7208,5.7281,5.7284,5.7396,5.7415,5.7422,5.7422,5.7424,5.7423,5.745,5.7438,5.742,5.7418,5.7417,5.7416,0,5.6796,5.6807,5.6933,5.698,5.6994,5.7078,5.7117,5.7186,5.7199,5.7294,5.7317,5.7337,5.7421,5.7429,5.7527,5.7529,5.7664,5.7652,5.7646,5.7643,5.7727,5.7718,5.8004,5.8041,5.78,5.7802,5.7804,0,5.6924,5.7004,5.7058,5.7107,5.7137,5.7216,5.7264,5.7262,5.7313,5.7378,5.7438,5.7519,5.7583,5.7718,5.7741,5.7815,5.7803,5.7898,5.7814,5.7813,5.7802,5.7796,5.7803,5.7914,5.7917,5.7919,5.7921,0,5.7148,5.7148,5.7219,5.7291,5.7348,5.7405,5.7458,5.7499,5.7503,5.7561,5.7646,5.7696,5.7794,5.7874,5.7946,5.7974,5.7948,5.7947,5.797,5.7973,5.7965,5.7968,5.7688,5.794,5.7939,5.7937,5.7936,5.7935,5.7308,5.7376,5.7425,5.7503,5.7542,5.7592,5.7657,5.7678,5.7748,5.7828,5.7822,5.7915,5.7963,5.8057,5.809,5.8162,5.813,5.8165,5.8173,5.8181,5.8188,5.7955,5.8175,5.8175,5.8174,5.8174,5.8174,0,5.7529,5.7557,5.763,5.7703,5.7765,5.7734,5.779,5.7843,5.7925,5.7973,5.8036,5.8132,5.8208,5.8237,5.8311,5.8363,5.8353,5.8382,5.8378,5.8384,5.8214,5.8185,5.8389,5.8389,5.8389,5.8389,5.8389,5.8389,5.7651,5.7764,5.777,5.7901,5.7929,5.8019,5.8053,5.8098,5.8135,5.8243,5.8306,5.8324,5.8363,5.844,5.8508,5.8514,5.8542,5.8577,5.8578,5.8418,5.8396,5.8376,5.8348,5.8583,5.8584,5.8741,5.8743,5.8744]},{"header":{"parameterUnit":"m.s-1","parameterCategory":1,"la1":30.2991,"la2":30.254,"lo1":-89.0895,"lo2":-89.0444,"dy":0.0017,"dx":0.0017,"nx":28,"ny":28,"refTime":"2024-07-08T03:00:00:Z","depth":0,"parameterNumber":3,"parameterNumberName":"V-component_of_WINDS"},"data":[0,0,0,0,0,0,0,0,0,0,0,0,0,0,0,0,0,0,0,0,0,0,0,0,0,0,0,0,0,0,0,0,0,0,0,0,0,0,0,0,0,0,0,0,0,0,0,0,0,0,0,0,0,0,0,0,0,0,3.9616,3.9617,0,3.9667,3.9668,3.9668,3.9643,3.9642,3.964,3.9639,3.9689,3.9692,3.9694,0,0,0,0,0,0,0,0,0,0,0,0,0,3.9494,3.9497,3.9616,3.9617,3.9617,3.9667,3.9668,3.9669,3.9643,3.9642,3.964,3.9639,3.9688,3.9691,3.9695,0,0,0,0,0,0,0,0,0,0,0,0,0,3.9547,3.9498,3.9616,3.9611,3.9611,3.9667,3.9668,3.9669,3.9644,3.9642,3.964,3.9638,3.9687,3.9691,3.9695,3.9758,0,0,3.9707,3.9708,0,0,0,0,0,0,0,0,3.9544,3.9551,3.9611,3.9611,3.9611,3.9647,3.9643,3.9699,3.9644,3.9631,3.9639,3.9637,3.9677,3.9681,3.9695,3.9761,3.9763,3.9707,3.9709,3.9711,3.9712,0,0,0,0,0,0,0,3.954,3.9549,3.9636,3.9612,3.9612,3.9605,3.9611,3.9654,3.9664,3.9632,3.963,3.9637,3.9676,3.9691,3.9696,3.9764,3.9707,3.971,3.9713,3.9714,3.9885,3.9887,0,0,0,0,0,0,3.9537,3.9546,3.9635,3.9638,3.9572,3.9609,3.9615,3.9637,3.9664,3.9666,3.9639,3.9636,3.9686,3.9692,3.9698,3.9774,3.9711,3.9715,3.9717,3.9883,3.9885,3.9888,0,0,0,0,0,0,3.9534,3.9545,3.9633,3.9591,3.9602,3.9613,3.9639,3.9639,3.9655,3.9669,3.967,3.9652,3.9685,3.9692,3.9744,3.9776,3.9716,3.972,3.988,3.9883,3.9886,3.9928,0,0,0,0,0,0,3.9531,3.9544,3.9569,3.9592,3.9604,3.9678,3.9641,3.9642,3.9662,3.9658,3.9682,3.9684,3.9684,3.9738,3.9748,3.978,3.9723,3.9877,3.9881,3.9885,3.9924,3.9932,3.9939,0,0,0,0,0,3.9527,3.9578,3.957,3.9581,3.9636,3.968,3.9687,3.9686,3.9664,3.9689,3.9698,3.9683,3.9771,3.9744,3.9754,3.9788,3.9875,3.988,3.9885,3.992,3.993,3.9939,0,0,0,0,0,0,3.9557,3.9581,3.9573,3.9633,3.9655,3.9676,3.9707,3.9697,3.9725,3.9721,3.9718,3.9724,3.9777,3.9788,3.9757,3.9851,3.9819,3.9827,3.9843,3.9852,3.986,3.9857,3.9726,0,0,0,0,0,3.9571,3.9606,3.9625,3.9676,3.9688,3.9696,3.9715,3.9713,3.9735,3.9744,3.9757,3.9778,3.9811,3.9832,3.9863,3.9925,3.993,3.9954,3.9961,3.9968,3.9974,4.0008,4.0019,3.9904,3.9904,3.9904,0,0,3.96,3.9617,3.9639,3.9683,3.9699,3.9735,3.9703,3.9743,3.9769,3.9749,3.9799,3.981,3.9834,3.9891,3.9917,3.9901,4.0007,3.9974,3.9979,3.9982,4.0015,4.0026,4.0035,3.9907,3.9907,3.9906,0,0,3.967,3.9687,3.9732,3.975,3.9776,3.9781,3.9792,3.9815,3.9821,3.9871,3.9858,3.9889,3.9945,3.9963,3.9979,4.0058,4.0045,4.0068,4.0109,4.0142,4.0151,4.0159,4.0188,4.0198,4.0074,4.0074,4.0074,0,3.9702,3.9757,3.9756,3.9797,3.9816,3.9801,3.9847,3.9864,3.9898,3.9912,3.9894,3.9965,3.998,4.0041,4.0061,4.0074,4.0087,4.0065,4.015,4.0158,4.0166,4.0193,4.0203,4.0076,4.0076,4.0076,4.0076,0,3.9795,3.9833,3.9866,3.9901,3.9924,3.9967,3.9973,3.9996,3.9992,3.9999,4.005,4.0068,4.0102,4.0117,4.0112,4.0178,4.0168,4.015,4.0118,4.0179,4.0205,4.0215,4.008,4.0079,4.0078,4.0078,0,0,3.9886,3.9921,3.9933,3.9949,3.9977,4.0006,4.0048,4.0083,4.0103,4.0128,4.0163,4.0211,4.0195,4.0214,4.0212,4.0241,4.0303,4.022,4.0221,4.0235,4.0377,4.039,4.0402,4.0295,4.0297,4.0299,4.0375,0,3.9959,4.0033,4.0034,4.0103,4.0138,4.0125,4.0162,4.0183,4.019,4.0221,4.0229,4.0264,4.024,4.0251,4.028,4.029,4.0332,4.0284,4.0328,4.0329,4.0322,4.0416,4.043,4.0501,4.0385,4.0387,4.0388,0,4.0053,4.0082,4.0155,4.0179,4.0194,4.0227,4.0259,4.0288,4.0312,4.0316,4.0337,4.0331,4.0374,4.0341,4.04,4.0367,4.0385,4.0393,4.0395,4.04,4.0362,4.0422,4.0524,4.0535,4.0404,4.0402,4.0401,0,4.0113,4.017,4.0221,4.0235,4.0264,4.0287,4.0301,4.0322,4.0343,4.0371,4.0385,4.0417,4.0435,4.046,4.0462,4.0438,4.0522,4.0488,4.0526,4.0526,4.0544,4.0543,4.065,4.0555,4.0555,4.0555,4.0555,0,4.0194,4.0239,4.0248,4.0279,4.0329,4.033,4.0379,4.039,4.041,4.0443,4.0433,4.0464,4.0465,4.0497,4.0499,4.0548,4.0556,4.056,4.056,4.0561,4.056,4.0572,4.0568,4.0558,4.0557,4.0557,4.0556,0,4.0269,4.0276,4.0331,4.0355,4.0362,4.0397,4.0417,4.0447,4.0454,4.0496,4.0506,4.0517,4.0554,4.0559,4.0602,4.0604,4.0663,4.0657,4.0655,4.0654,4.0691,4.0688,4.081,4.0826,4.0721,4.0722,4.0723,0,4.032,4.0355,4.0382,4.0404,4.0419,4.0454,4.0476,4.0478,4.0501,4.0531,4.0557,4.0594,4.0623,4.0682,4.0694,4.0727,4.0722,4.0763,4.0727,4.0728,4.0724,4.0722,4.0725,4.077,4.0771,4.0772,4.0773,0,4.0411,4.0413,4.0445,4.0479,4.0506,4.0532,4.0557,4.0575,4.058,4.0607,4.0645,4.0668,4.0713,4.0749,4.0782,4.0794,4.0785,4.0784,4.0794,4.0796,4.0793,4.0796,4.0674,4.0781,4.078,4.078,4.0779,4.0779,4.0475,4.0506,4.053,4.0567,4.0586,4.061,4.0639,4.0651,4.0683,4.072,4.0719,4.0761,4.0785,4.0828,4.0844,4.0877,4.0863,4.0878,4.0882,4.0886,4.089,4.0788,4.0882,4.0882,4.0882,4.0882,4.0882,0,4.0566,4.0581,4.0615,4.0651,4.0679,4.0669,4.0696,4.072,4.0758,4.0781,4.0811,4.0855,4.089,4.0905,4.094,4.0963,4.096,4.0973,4.0971,4.0974,4.0899,4.0887,4.0975,4.0975,4.0975,4.0975,4.0975,4.0975,4.0616,4.0667,4.0673,4.0733,4.0748,4.079,4.0807,4.0829,4.0847,4.0898,4.0927,4.0937,4.0957,4.0994,4.1026,4.1029,4.1042,4.1057,4.1059,4.0989,4.0979,4.097,4.0959,4.106,4.106,4.1131,4.1131,4.1132]}]]